| time (UTC) | temp C | wind direction | speed KPH | gust KPH | rain 1hr cm | rain 24hr cm | rain mn cm | humidity % | barometer mb |
| 20260508231234 | 17 | 213 | 0.0 | 6.4 | 0.00 | 0.00 | 0.00 | 57 | 1004.5 |
| 20260508230234 | 17 | 228 | 0.0 | 11.3 | 0.00 | 0.00 | 0.00 | 54 | 1004.5 |
| 20260508224234 | 18 | 265 | 0.0 | 6.4 | 0.00 | 0.00 | 0.00 | 44 | 1004.5 |
| 20260508223235 | 18 | 276 | 0.0 | 1.6 | 0.00 | 0.00 | 0.00 | 44 | 1004.5 |
| 20260508222235 | 18 | 243 | 0.0 | 1.6 | 0.00 | 0.00 | 0.00 | 46 | 1004.6 |
| 20260508221235 | 17 | 0 | 0.0 | 0.0 | 0.00 | 0.00 | 0.00 | 48 | 1004.8 |
| 20260508220234 | 17 | 187 | 0.0 | 8.0 | 0.00 | 0.00 | 0.00 | 48 | 1004.9 |
| 20260508215239 | 17 | 268 | 1.6 | 12.9 | 0.00 | 0.00 | 0.00 | 49 | 1004.9 |
| 20260508214234 | 16 | 254 | 1.6 | 16.1 | 0.00 | 0.00 | 0.00 | 46 | 1004.9 |
| 20260508213234 | 17 | 244 | 0.0 | 11.3 | 0.00 | 0.00 | 0.00 | 47 | 1004.9 |
| 20260508212234 | 17 | 275 | 1.6 | 16.1 | 0.00 | 0.00 | 0.00 | 46 | 1005.0 |
| 20260508211235 | 18 | 207 | 3.2 | 11.3 | 0.00 | 0.00 | 0.00 | 49 | 1005.0 |
| 20260508210234 | 17 | 239 | 1.6 | 16.1 | 0.00 | 0.00 | 0.00 | 46 | 1005.0 |
| 20260508204236 | 17 | 278 | 1.6 | 9.7 | 0.00 | 0.00 | 0.00 | 44 | 1005.2 |
| 20260508203234 | 18 | 268 | 1.6 | 14.5 | 0.00 | 0.00 | 0.00 | 41 | 1005.3 |
| 20260508202236 | 18 | 168 | 0.0 | 9.7 | 0.00 | 0.00 | 0.00 | 46 | 1005.4 |
| 20260508201235 | 17 | 270 | 1.6 | 11.3 | 0.00 | 0.00 | 0.00 | 52 | 1005.6 |
| 20260508200234 | 17 | 251 | 0.0 | 1.6 | 0.00 | 0.00 | 0.00 | 50 | 1005.8 |
| 20260508195239 | 17 | 179 | 0.0 | 6.4 | 0.00 | 0.00 | 0.00 | 49 | 1006.1 |
| 20260508194235 | 17 | 202 | 1.6 | 14.5 | 0.00 | 0.00 | 0.00 | 49 | 1006.2 |
| 20260508193234 | 17 | 253 | 0.0 | 9.7 | 0.00 | 0.00 | 0.00 | 49 | 1006.4 |
| 20260508192235 | 16 | 247 | 1.6 | 16.1 | 0.00 | 0.00 | 0.00 | 51 | 1006.4 |
| 20260508191234 | 16 | 184 | 1.6 | 8.0 | 0.00 | 0.00 | 0.00 | 51 | 1006.6 |
| 20260508190234 | 16 | 176 | 0.0 | 9.7 | 0.00 | 0.00 | 0.00 | 50 | 1006.9 |
| 20260508185234 | 16 | 227 | 0.0 | 6.4 | 0.00 | 0.00 | 0.00 | 51 | 1006.9 |
| 20260508184235 | 16 | 0 | 0.0 | 0.0 | 0.00 | 0.00 | 0.00 | 47 | 1007.0 |
| 20260508182236 | 17 | 248 | 3.2 | 17.7 | 0.00 | 0.00 | 0.00 | 48 | 1007.3 |
| 20260508181234 | 16 | 199 | 0.0 | 9.7 | 0.00 | 0.00 | 0.00 | 47 | 1007.2 |
| 20260508180234 | 16 | 277 | 1.6 | 12.9 | 0.00 | 0.00 | 0.00 | 51 | 1007.2 |
| 20260508175233 | 16 | 275 | 4.8 | 12.9 | 0.00 | 0.00 | 0.00 | 49 | 1007.6 |
| 20260508174234 | 16 | 304 | 0.0 | 11.3 | 0.00 | 0.00 | 0.00 | 49 | 1007.8 |
| 20260508173234 | 16 | 221 | 1.6 | 9.7 | 0.00 | 0.00 | 0.00 | 50 | 1008.1 |
| 20260508172234 | 16 | 303 | 0.0 | 4.8 | 0.00 | 0.00 | 0.00 | 55 | 1008.2 |
| 20260508171233 | 16 | 246 | 1.6 | 11.3 | 0.00 | 0.00 | 0.00 | 52 | 1008.3 |
| 20260508170234 | 16 | 259 | 0.0 | 9.7 | 0.00 | 0.00 | 0.00 | 49 | 1008.4 |
| 20260508165234 | 16 | 18 | 0.0 | 6.4 | 0.00 | 0.00 | 0.00 | 52 | 1008.5 |
| 20260508164234 | 15 | 248 | 0.0 | 3.2 | 0.00 | 0.00 | 0.00 | 47 | 1008.7 |
| 20260508163233 | 15 | 0 | 0.0 | 1.6 | 0.00 | 0.00 | 0.00 | 52 | 1008.8 |
| 20260508162234 | 15 | 216 | 0.0 | 6.4 | 0.00 | 0.00 | 0.00 | 47 | 1009.0 |
| 20260508161234 | 15 | 276 | 0.0 | 4.8 | 0.00 | 0.00 | 0.00 | 46 | 1009.1 |
| 20260508160233 | 15 | 0 | 0.0 | 0.0 | 0.00 | 0.00 | 0.00 | 47 | 1009.1 |
| 20260508155234 | 15 | 180 | 0.0 | 4.8 | 0.00 | 0.00 | 0.00 | 50 | 1009.1 |
| 20260508154234 | 14 | 179 | 0.0 | 4.8 | 0.00 | 0.00 | 0.00 | 51 | 1009.2 |
| 20260508153233 | 14 | 179 | 0.0 | 4.8 | 0.00 | 0.00 | 0.00 | 50 | 1009.2 |
| 20260508152233 | 13 | 179 | 0.0 | 6.4 | 0.00 | 0.00 | 0.00 | 51 | 1009.3 |
| 20260508151234 | 13 | 0 | 0.0 | 0.0 | 0.00 | 0.00 | 0.00 | 53 | 1009.3 |
| 20260508150233 | 13 | 0 | 0.0 | 0.0 | 0.00 | 0.00 | 0.00 | 56 | 1009.4 |
| 20260508145234 | 13 | 0 | 0.0 | 0.0 | 0.00 | 0.00 | 0.00 | 58 | 1009.5 |
| 20260508144233 | 12 | 0 | 0.0 | 0.0 | 0.00 | 0.00 | 0.00 | 60 | 1009.6 |
| 20260508143235 | 12 | 179 | 0.0 | 4.8 | 0.00 | 0.00 | 0.00 | 61 | 1009.7 |
| 20260508142234 | 12 | 57 | 0.0 | 3.2 | 0.00 | 0.00 | 0.00 | 71 | 1009.7 |
| 20260508141233 | 11 | 0 | 0.0 | 0.0 | 0.00 | 0.00 | 0.00 | 72 | 1009.8 |
| 20260508140233 | 11 | 0 | 0.0 | 0.0 | 0.00 | 0.00 | 0.00 | 72 | 1009.8 |
| 20260508135233 | 10 | 0 | 0.0 | 0.0 | 0.00 | 0.00 | 0.00 | 75 | 1009.8 |
| 20260508134234 | 10 | 0 | 0.0 | 0.0 | 0.00 | 0.00 | 0.00 | 77 | 1009.9 |
| 20260508133233 | 10 | 0 | 0.0 | 0.0 | 0.00 | 0.00 | 0.00 | 79 | 1010.0 |
| 20260508132234 | 9 | 0 | 0.0 | 0.0 | 0.00 | 0.00 | 0.00 | 81 | 1009.9 |
| 20260508131233 | 9 | 0 | 0.0 | 0.0 | 0.00 | 0.00 | 0.00 | 80 | 1010.0 |
| 20260508125233 | 8 | 0 | 0.0 | 0.0 | 0.00 | 0.00 | 0.00 | 84 | 1009.9 |
| 20260508124233 | 8 | 0 | 0.0 | 0.0 | 0.00 | 0.00 | 0.00 | 86 | 1009.9 |
| 20260508122234 | 7 | 0 | 0.0 | 0.0 | 0.00 | 0.00 | 0.00 | 89 | 1009.8 |
| 20260508121233 | 7 | 0 | 0.0 | 0.0 | 0.00 | 0.00 | 0.00 | 91 | 1009.7 |
| 20260508120233 | 6 | 0 | 0.0 | 0.0 | 0.00 | 0.00 | 0.00 | 92 | 1009.6 |
| 20260508115233 | 6 | 0 | 0.0 | 0.0 | 0.00 | 0.00 | 0.00 | 92 | 1009.6 |
| 20260508114234 | 5 | 0 | 0.0 | 0.0 | 0.00 | 0.00 | 0.00 | 92 | 1009.5 |
| 20260508113233 | 5 | 0 | 0.0 | 0.0 | 0.00 | 0.00 | 0.00 | 92 | 1009.5 |
| 20260508112233 | 4 | 0 | 0.0 | 0.0 | 0.00 | 0.00 | 0.00 | 92 | 1009.3 |
| 20260508111233 | 3 | 0 | 0.0 | 0.0 | 0.00 | 0.00 | 0.00 | 92 | 1009.1 |
| 20260508110233 | 3 | 0 | 0.0 | 0.0 | 0.00 | 0.00 | 0.00 | 92 | 1009.0 |
| 20260508105233 | 2 | 0 | 0.0 | 0.0 | 0.00 | 0.00 | 0.00 | 92 | 1009.0 |
| 20260508104234 | 2 | 0 | 0.0 | 0.0 | 0.00 | 0.00 | 0.00 | 92 | 1009.0 |
| 20260508103233 | 3 | 0 | 0.0 | 0.0 | 0.00 | 0.00 | 0.00 | 92 | 1008.8 |
| 20260508102233 | 3 | 0 | 0.0 | 0.0 | 0.00 | 0.00 | 0.00 | 92 | 1008.8 |
| 20260508101233 | 3 | 0 | 0.0 | 0.0 | 0.00 | 0.00 | 0.00 | 92 | 1008.8 |
| 20260508100233 | 3 | 0 | 0.0 | 0.0 | 0.00 | 0.00 | 0.00 | 92 | 1008.8 |
| 20260508095233 | 3 | 0 | 0.0 | 0.0 | 0.00 | 0.00 | 0.00 | 92 | 1008.9 |
| 20260508094233 | 3 | 0 | 0.0 | 0.0 | 0.00 | 0.00 | 0.00 | 91 | 1008.9 |
| 20260508093233 | 3 | 0 | 0.0 | 0.0 | 0.00 | 0.00 | 0.00 | 91 | 1008.8 |
| 20260508092233 | 3 | 0 | 0.0 | 0.0 | 0.00 | 0.00 | 0.00 | 91 | 1008.8 |
| 20260508091233 | 3 | 0 | 0.0 | 0.0 | 0.00 | 0.00 | 0.00 | 90 | 1008.9 |
| 20260508090233 | 3 | 0 | 0.0 | 0.0 | 0.00 | 0.00 | 0.00 | 90 | 1008.9 |
| 20260508085233 | 4 | 0 | 0.0 | 0.0 | 0.00 | 0.00 | 0.00 | 88 | 1008.9 |
| 20260508084233 | 5 | 0 | 0.0 | 0.0 | 0.00 | 0.00 | 0.00 | 88 | 1008.9 |
| 20260508083233 | 5 | 0 | 0.0 | 0.0 | 0.00 | 0.00 | 0.00 | 87 | 1009.0 |
| 20260508082233 | 6 | 0 | 0.0 | 0.0 | 0.00 | 0.00 | 0.00 | 86 | 1008.9 |
| 20260508081233 | 6 | 0 | 0.0 | 0.0 | 0.00 | 0.00 | 0.00 | 86 | 1009.0 |
| 20260508080233 | 6 | 0 | 0.0 | 0.0 | 0.00 | 0.00 | 0.00 | 85 | 1008.9 |
| 20260508075235 | 6 | 0 | 0.0 | 0.0 | 0.00 | 0.00 | 0.00 | 85 | 1009.2 |
| 20260508074233 | 6 | 0 | 0.0 | 0.0 | 0.00 | 0.00 | 0.00 | 85 | 1009.2 |
| 20260508073233 | 6 | 0 | 0.0 | 0.0 | 0.00 | 0.00 | 0.00 | 86 | 1009.2 |
| 20260508072233 | 6 | 0 | 0.0 | 0.0 | 0.00 | 0.00 | 0.00 | 87 | 1009.2 |
| 20260508071233 | 5 | 0 | 0.0 | 0.0 | 0.00 | 0.00 | 0.00 | 87 | 1009.2 |
| 20260508070233 | 5 | 0 | 0.0 | 0.0 | 0.00 | 0.00 | 0.00 | 87 | 1009.3 |
| 20260508065233 | 5 | 0 | 0.0 | 0.0 | 0.00 | 0.00 | 0.00 | 87 | 1009.4 |
| 20260508064233 | 5 | 0 | 0.0 | 0.0 | 0.00 | 0.00 | 0.00 | 85 | 1009.4 |
| 20260508063233 | 5 | 0 | 0.0 | 0.0 | 0.00 | 0.00 | 0.00 | 84 | 1009.4 |
| 20260508062233 | 6 | 0 | 0.0 | 0.0 | 0.00 | 0.00 | 0.00 | 84 | 1009.4 |
| 20260508061233 | 6 | 0 | 0.0 | 0.0 | 0.00 | 0.00 | 0.00 | 84 | 1009.4 |
| 20260508060234 | 5 | 0 | 0.0 | 0.0 | 0.00 | 0.00 | 0.00 | 85 | 1009.3 |
| 20260508055234 | 5 | 0 | 0.0 | 0.0 | 0.00 | 0.00 | 0.00 | 85 | 1009.3 |
| 20260508054234 | 5 | 0 | 0.0 | 0.0 | 0.00 | 0.00 | 0.00 | 85 | 1009.5 |
| 20260508053234 | 5 | 0 | 0.0 | 0.0 | 0.00 | 0.00 | 0.00 | 84 | 1009.5 |
| 20260508052235 | 5 | 0 | 0.0 | 0.0 | 0.00 | 0.00 | 0.00 | 84 | 1009.6 |
| 20260508051235 | 5 | 0 | 0.0 | 0.0 | 0.00 | 0.00 | 0.00 | 81 | 1009.6 |
| 20260508050234 | 6 | 0 | 0.0 | 0.0 | 0.00 | 0.00 | 0.00 | 79 | 1009.6 |
| 20260508045234 | 6 | 0 | 0.0 | 0.0 | 0.00 | 0.00 | 0.00 | 77 | 1009.5 |
| 20260508044234 | 7 | 0 | 0.0 | 0.0 | 0.00 | 0.00 | 0.00 | 77 | 1009.5 |
| 20260508043235 | 7 | 0 | 0.0 | 0.0 | 0.00 | 0.00 | 0.00 | 76 | 1009.5 |
| 20260508042234 | 7 | 0 | 0.0 | 0.0 | 0.00 | 0.00 | 0.00 | 74 | 1009.4 |
| 20260508041234 | 8 | 0 | 0.0 | 0.0 | 0.00 | 0.00 | 0.00 | 73 | 1009.4 |
| 20260508040234 | 8 | 0 | 0.0 | 0.0 | 0.00 | 0.00 | 0.00 | 73 | 1009.5 |
| 20260508035234 | 8 | 0 | 0.0 | 0.0 | 0.00 | 0.00 | 0.00 | 72 | 1009.5 |
| 20260508034234 | 8 | 0 | 0.0 | 0.0 | 0.00 | 0.00 | 0.00 | 72 | 1009.6 |
| 20260508033235 | 8 | 0 | 0.0 | 0.0 | 0.00 | 0.00 | 0.00 | 71 | 1009.6 |
| 20260508032234 | 8 | 0 | 0.0 | 0.0 | 0.00 | 0.00 | 0.00 | 70 | 1009.7 |
| 20260508031234 | 9 | 0 | 0.0 | 0.0 | 0.00 | 0.00 | 0.00 | 69 | 1009.8 |
| 20260508030234 | 9 | 0 | 0.0 | 0.0 | 0.00 | 0.00 | 0.00 | 68 | 1010.0 |
| 20260508025237 | 9 | 0 | 0.0 | 0.0 | 0.00 | 0.00 | 0.00 | 67 | 1010.0 |
| 20260508024234 | 9 | 0 | 0.0 | 0.0 | 0.00 | 0.00 | 0.00 | 66 | 1010.0 |
| 20260508023234 | 10 | 0 | 0.0 | 0.0 | 0.00 | 0.00 | 0.00 | 65 | 1009.8 |
| 20260508022234 | 10 | 0 | 0.0 | 0.0 | 0.00 | 0.00 | 0.00 | 62 | 1009.9 |
| 20260508021234 | 10 | 0 | 0.0 | 0.0 | 0.00 | 0.00 | 0.00 | 57 | 1009.9 |
| 20260508020234 | 10 | 260 | 0.0 | 4.8 | 0.00 | 0.00 | 0.00 | 56 | 1009.8 |
| 20260508014234 | 10 | 0 | 0.0 | 0.0 | 0.00 | 0.00 | 0.00 | 58 | 1009.6 |
| 20260508013233 | 9 | 181 | 0.0 | 8.0 | 0.00 | 0.00 | 0.00 | 57 | 1009.5 |
| 20260508012234 | 8 | 0 | 0.0 | 0.0 | 0.00 | 0.00 | 0.00 | 64 | 1009.3 |
| 20260508011234 | 8 | 0 | 0.0 | 0.0 | 0.00 | 0.00 | 0.00 | 60 | 1009.0 |
| 20260508010234 | 8 | 0 | 0.0 | 0.0 | 0.00 | 0.00 | 0.00 | 59 | 1009.0 |
| 20260508005234 | 8 | 0 | 0.0 | 0.0 | 0.00 | 0.00 | 0.00 | 57 | 1009.0 |
| 20260508004235 | 9 | 0 | 0.0 | 0.0 | 0.00 | 0.00 | 0.00 | 54 | 1008.9 |
| 20260508003233 | 10 | 0 | 0.0 | 0.0 | 0.00 | 0.00 | 0.00 | 50 | 1008.8 |
| 20260508002233 | 11 | 0 | 0.0 | 0.0 | 0.00 | 0.00 | 0.00 | 48 | 1008.8 |
| 20260508001234 | 11 | 0 | 0.0 | 0.0 | 0.00 | 0.00 | 0.00 | 47 | 1008.8 |
| 20260508000235 | 12 | 272 | 0.0 | 6.4 | 0.00 | 0.00 | 0.00 | 45 | 1008.9 |
| 20260507235234 | 12 | 276 | 1.6 | 9.7 | 0.00 | 0.00 | 0.00 | 44 | 1008.8 |
| 20260507234234 | 12 | 263 | 1.6 | 12.9 | 0.00 | 0.00 | 0.00 | 43 | 1008.8 |
| 20260507233233 | 12 | 264 | 0.0 | 11.3 | 0.00 | 0.00 | 0.00 | 42 | 1008.9 |
| 20260507232234 | 12 | 0 | 0.0 | 0.0 | 0.00 | 0.00 | 0.00 | 44 | 1008.8 |